Weather History for Rensselaer, IN

Change the Weather History Date:

Tuesday, May 8, 2012

  Actual Average (KVPZ) Record (KVPZ)
Temperature  
Mean Temperature 62 °F 57 °F  
Max Temperature 69 °F 68 °F 90 °F (2014)
Min Temperature 53 °F 46 °F 42 °F (2006)
Degree Days  
Heating Degree Days 3 9  
Month to date heating degree days 78  
Since 1 July heating degree days 6137  
Cooling Degree Days 0 1  
Month to date cooling degree days 4  
Year to date cooling degree days 9  
Growing Degree Days 12 (Base 50)    
Moisture  
Dew Point 49 °F    
Average Humidity 68    
Maximum Humidity 100    
Minimum Humidity 35    
Precipitation  
Precipitation 0.00 in 0.12 in 0.16 in (2002)
Month to date precipitation 1.05  
Year to date precipitation 10.23  
Sea Level Pressure  
Sea Level Pressure 29.88 in    
Wind  
Wind Speed 5 mph (West)    
Max Wind Speed 16 mph    
Max Gust Speed 22 mph    
Visibility 8 miles    
Events Fog    
T = Trace of Precipitation, MM = Missing Value Source: NWS Daily Summary

Daily Weather History Graph

Daily Weather History Graph

Search for Another Location

Airport:

Trip Planner

Search our weather history database for the weather conditions in past years. The results will help you decide how hot, cold, wet, or windy it might be!

Date:

Astronomy

May. 08, 2012 Rise Set
Actual Time 5:37 AM CDT 7:53 PM CDT
Civil Twilight 5:07 AM CDT 8:23 PM CDT
Nautical Twilight 4:29 AM CDT 9:01 PM CDT
Astronomical Twilight 3:48 AM CDT 9:43 PM CDT
Moon 11:03 PM CDT (5/8) 7:44 AM CDT (5/8)
Length of Visible Light 15h 16m
Length of Day
14h 15m
Waning Gibbous, 90% of the Moon is Illuminated
May 8
Waning Gibbous
May 12
Last Quarter
May 20
New
May 28
First Quarter
Jun 4
Full

Hourly Weather History & Observations

Time (CDT) Temp. Dew Point Humidity Pressure Visibility Wind Dir Wind Speed Gust Speed Precip Events Conditions
12:15 AM 57.2 °F 55.4 °F 94% 29.88 in 2.0 mi Calm Calm - N/A   Overcast
12:35 AM 57.2 °F 55.4 °F 94% 29.88 in 2.0 mi Calm Calm - N/A   Overcast
12:55 AM 57.2 °F 55.4 °F 94% 29.87 in 2.5 mi Calm Calm - N/A   Overcast
1:15 AM 57.2 °F 55.4 °F 94% 29.87 in 2.5 mi Calm Calm - N/A   Overcast
1:35 AM 57.2 °F 55.4 °F 94% 29.87 in 2.5 mi Calm Calm - N/A   Overcast
1:55 AM 57.2 °F 55.4 °F 94% 29.87 in 2.5 mi Calm Calm - N/A   Overcast
2:15 AM 57.2 °F 55.4 °F 94% 29.86 in 2.5 mi Calm Calm - N/A   Overcast
2:35 AM 57.2 °F 55.4 °F 94% 29.86 in 2.5 mi Calm Calm - N/A   Overcast
3:15 AM 55.4 °F 55.4 °F 100% 29.86 in 3.0 mi West 5.8 mph - N/A   Overcast
3:35 AM 55.4 °F 55.4 °F 100% 29.87 in 3.0 mi WSW 4.6 mph - N/A   Overcast
3:55 AM 55.4 °F 53.6 °F 94% 29.88 in 2.5 mi WSW 5.8 mph - N/A   Overcast
4:15 AM 55.4 °F 53.6 °F 94% 29.87 in 2.5 mi WSW 5.8 mph - N/A   Overcast
4:35 AM 55.4 °F 53.6 °F 94% 29.86 in 2.0 mi SW 5.8 mph - N/A   Overcast
4:55 AM 55.4 °F 53.6 °F 94% 29.86 in 0.8 mi WSW 5.8 mph - N/A   Overcast
5:15 AM 55.4 °F 53.6 °F 94% 29.85 in 0.5 mi West 6.9 mph - N/A Fog Fog
5:35 AM 55.4 °F 53.6 °F 94% 29.85 in 0.8 mi West 8.1 mph - N/A   Overcast
5:55 AM 55.4 °F 53.6 °F 94% 29.85 in 2.5 mi West 4.6 mph - N/A   Overcast
6:15 AM 55.4 °F 53.6 °F 94% 29.86 in 3.0 mi West 4.6 mph - N/A   Scattered Clouds
6:35 AM 55.4 °F 53.6 °F 94% 29.88 in 5.0 mi West 3.5 mph - N/A   Clear
6:55 AM 55.4 °F 53.6 °F 94% 29.89 in 7.0 mi Calm Calm - N/A   Clear
7:15 AM 55.4 °F 53.6 °F 94% 29.89 in 10.0 mi Calm Calm - N/A   Clear
7:35 AM 57.2 °F 53.6 °F 88% 29.89 in 10.0 mi Calm Calm - N/A   Clear
7:55 AM 57.2 °F 53.6 °F 88% 29.88 in 10.0 mi NW 4.6 mph - N/A   Clear
8:15 AM 59.0 °F 53.6 °F 82% 29.88 in 10.0 mi WNW 4.6 mph - N/A   Clear
8:55 AM 60.8 °F 53.6 °F 77% 29.89 in 10.0 mi WNW 6.9 mph - N/A   Clear
9:15 AM 60.8 °F 51.8 °F 72% 29.90 in 10.0 mi West 10.4 mph - N/A   Clear
9:35 AM 60.8 °F 53.6 °F 77% 29.90 in 10.0 mi West 11.5 mph - N/A   Clear
9:55 AM 60.8 °F 51.8 °F 72% 29.89 in 10.0 mi WNW 9.2 mph - N/A   Clear
10:15 AM 62.6 °F 51.8 °F 68% 29.90 in 10.0 mi WNW 9.2 mph - N/A   Clear
10:35 AM 64.4 °F 51.8 °F 64% 29.90 in 10.0 mi NW 5.8 mph - N/A   Clear
10:55 AM 64.4 °F 50.0 °F 59% 29.90 in 10.0 mi WNW 6.9 mph - N/A   Clear
11:15 AM 66.2 °F 48.2 °F 52% 29.90 in 10.0 mi West 13.8 mph 18.4 mph N/A   Scattered Clouds
11:35 AM 66.2 °F 44.6 °F 46% 29.90 in 10.0 mi West 12.7 mph 21.9 mph N/A   Clear
11:55 AM 68.0 °F 46.4 °F 46% 29.90 in 10.0 mi West 13.8 mph 20.7 mph N/A   Scattered Clouds
12:15 PM 68.0 °F 44.6 °F 43% 29.90 in 10.0 mi West 12.7 mph - N/A   Scattered Clouds
12:35 PM 68.0 °F 44.6 °F 43% 29.89 in 10.0 mi WNW 10.4 mph 17.3 mph N/A   Scattered Clouds
1:15 PM 68.0 °F 44.6 °F 43% 29.88 in 10.0 mi West 15.0 mph 20.7 mph N/A   Scattered Clouds
1:35 PM 69.8 °F 46.4 °F 43% 29.88 in 10.0 mi West 15.0 mph 19.6 mph N/A   Mostly Cloudy
1:55 PM 69.8 °F 44.6 °F 40% 29.88 in 10.0 mi West 15.0 mph - N/A   Scattered Clouds
2:15 PM 68.0 °F 46.4 °F 46% 29.89 in 10.0 mi West 13.8 mph - N/A   Scattered Clouds
2:35 PM 68.0 °F 44.6 °F 43% 29.89 in 10.0 mi West 16.1 mph 21.9 mph N/A   Scattered Clouds
2:55 PM 69.8 °F 41.0 °F 35% 29.89 in 10.0 mi West 16.1 mph 19.6 mph N/A   Scattered Clouds
3:15 PM 69.8 °F 41.0 °F 35% 29.89 in 10.0 mi WNW 13.8 mph 21.9 mph N/A   Scattered Clouds
3:35 PM 68.0 °F 41.0 °F 37% 29.89 in 10.0 mi West 13.8 mph 18.4 mph N/A   Mostly Cloudy
3:55 PM 68.0 °F 41.0 °F 37% 29.89 in 10.0 mi WNW 10.4 mph 20.7 mph N/A   Mostly Cloudy
4:15 PM 68.0 °F 41.0 °F 37% 29.89 in 10.0 mi WNW 10.4 mph 17.3 mph N/A   Mostly Cloudy
4:35 PM 68.0 °F 41.0 °F 37% 29.89 in 10.0 mi WNW 9.2 mph 19.6 mph N/A   Mostly Cloudy
4:55 PM 69.8 °F 41.0 °F 35% 29.88 in 10.0 mi West 15.0 mph - N/A   Mostly Cloudy
5:15 PM 68.0 °F 41.0 °F 37% 29.88 in 10.0 mi WNW 12.7 mph - N/A   Mostly Cloudy
5:35 PM 68.0 °F 41.0 °F 37% 29.88 in 10.0 mi West 12.7 mph 19.6 mph N/A   Mostly Cloudy
5:55 PM 68.0 °F 41.0 °F 37% 29.87 in 10.0 mi West 13.8 mph 19.6 mph N/A   Scattered Clouds
6:15 PM 68.0 °F 41.0 °F 37% 29.88 in 10.0 mi West 13.8 mph 19.6 mph N/A   Scattered Clouds
6:35 PM 68.0 °F 42.8 °F 40% 29.88 in 10.0 mi West 9.2 mph 17.3 mph N/A   Scattered Clouds
6:55 PM 66.2 °F 41.0 °F 40% 29.88 in 10.0 mi West 12.7 mph 17.3 mph N/A   Clear
7:15 PM 64.4 °F 41.0 °F 42% 29.88 in 10.0 mi West 10.4 mph - N/A   Clear
7:35 PM 62.6 °F 42.8 °F 48% 29.87 in 10.0 mi West 6.9 mph - N/A   Clear
7:55 PM 62.6 °F 42.8 °F 48% 29.87 in 10.0 mi WSW 5.8 mph - N/A   Clear
8:15 PM 60.8 °F 44.6 °F 55% 29.88 in 10.0 mi WSW 3.5 mph - N/A   Clear
8:35 PM 59.0 °F 46.4 °F 63% 29.88 in 10.0 mi SW 3.5 mph - N/A   Clear
8:55 PM 59.0 °F 44.6 °F 59% 29.88 in 10.0 mi WSW 3.5 mph - N/A   Clear
9:15 PM 59.0 °F 46.4 °F 63% 29.89 in 10.0 mi SW 3.5 mph - N/A   Clear
9:35 PM 55.4 °F 50.0 °F 82% 29.89 in 10.0 mi SSW 4.6 mph - N/A   Clear
9:55 PM 55.4 °F 50.0 °F 82% 29.89 in 10.0 mi WSW 3.5 mph - N/A   Clear
10:15 PM 57.2 °F 48.2 °F 72% 29.89 in 10.0 mi WSW 4.6 mph - N/A   Clear
10:35 PM 55.4 °F 48.2 °F 77% 29.89 in 10.0 mi SW 3.5 mph - N/A   Clear
11:15 PM 55.4 °F 48.2 °F 77% 29.90 in 10.0 mi WSW 4.6 mph - N/A   Clear
11:35 PM 55.4 °F 48.2 °F 77% 29.90 in 10.0 mi SW 5.8 mph - N/A   Clear
11:55 PM 53.6 °F 50.0 °F 88% 29.90 in 10.0 mi SW 5.8 mph - N/A   Clear